Reflectivity
-20 7 6 -20 -20 -20 22 16 36 29 23 30 38 39 37 20 -13 3 14 15 5 -18 -20 -19 -7 -20 -20 -20 -20 -20 -20 -20 -20 -20 -20 -20 -20 -20 -20 -20 -20 -20 -20 -20
-20 -8 -20 6 7 -20 14 25 33 25 31 33 28 39 32 19 2 30 -9 -18 -19 6 -20 14 -8 -14 -3 -20 -20 -20 -20 -19 -17 -20 -20 -20 -20 -20 -20 -20 -20 -20 3 -20
3 -20 -6 -19 12 -20 21 27 30 13 41 35 20 28 30 22 26 25 -0 -1 -7 14 1 16 15 6 -20 -20 -20 -20 -20 -20 -20 -20 -20 -20 -20 -20 -20 -20 3 -20 -20 -20
11 -20 -20 -20 -20 -20 18 23 33 34 31 34 29 9 26 4 16 7 -2 2 -9 18 18 -10 0 -12 -18 -1 -14 -20 -20 -20 -20 -20 -20 -20 -20 -20 -20 -20 -20 -9 -20 -20
8 -6 -20 -20 -20 -20 28 36 39 -0 16 26 23 7 1 31 4 16 2 24 27 5 13 14 10 8 -13 10 18 17 -19 -14 -20 -20 -20 -20 -20 -20 -20 -20 -20 -20 -20 -20
10 6 -15 5 -8 7 30 20 14 30 15 16 37 19 14 -9 5 10 -0 -12 -19 -14 -20 -20 13 17 19 27 26 16 -1 -20 -20 -20 -20 -20 -19 -20 -20 -20 -20 -20 -20 -20
18 -20 -20 11 7 3 33 25 18 36 26 25 7 33 8 24 18 21 7 -6 2 -20 -8 -13 -4 -15 4 16 11 1 -15 -20 4 -5 -6 5 -20 -20 -20 -20 -20 -20 -20 -20
4 -20 -20 15 13 24 36 27 22 31 36 15 -6 11 28 20 -9 -2 -16 -1 -11 -8 -10 10 11 -17 -16 6 -18 -19 -20 10 30 24 22 -4 -20 -20 -20 -20 -20 -20 -20 -20
20 22 12 19 14 1 32 20 22 25 28 27 7 19 15 4 -2 37 28 15 2 8 25 31 17 3 -12 18 31 22 24 13 15 20 13 9 -20 -20 -20 -20 -20 -20 -20 -20
-6 25 23 17 15 20 33 8 -9 17 39 6 27 25 24 0 10 13 19 -3 7 29 1 4 15 24 -0 0 -20 -11 -7 -2 18 12 3 -5 -20 -20 -20 -20 -20 -20 -20 -20
17 15 -3 -18 2 23 29 18 9 24 38 31 24 20 34 26 -14 4 15 4 24 22 17 15 8 16 20 11 -20 -20 -20 -19 -14 -4 7 18 -19 -20 -20 -20 -20 -10 -20 -20
-13 18 20 -13 4 -18 20 4 17 29 39 37 21 18 17 -4 5 -20 -20 -17 22 20 19 7 -6 -18 -20 -20 -11 -20 -6 -20 8 -18 -20 -20 -20 -20 -20 -20 -20 -20 -20 -20
29 10 -5 14 15 23 -18 3 27 32 26 28 14 22 19 6 -18 5 -5 -4 -18 -3 -15 -18 -18 8 -7 -20 -20 -20 -20 -20 -20 -20 -20 -20 -19 -11 -20 -20 -20 -20 -20 -20
37 34 18 7 15 20 -8 3 26 26 27 16 12 9 -5 10 -18 -16 -20 -20 21 18 24 32 32 19 -4 -20 -20 -20 -20 -20 -20 -19 -20 -13 -20 -20 -20 -20 -20 -20 -20 -20
31 37 37 36 31 30 26 16 15 26 2 18 13 7 8 7 -10 -20 -15 -20 -20 -10 1 24 11 -20 -20 -20 -20 -17 -20 -20 -10 9 -1 -9 -20 -20 -20 -20 -20 -20 -20 -20
6 17 24 26 35 34 34 36 38 35 32 20 13 20 24 -8 9 20 26 22 29 19 9 -8 -20 -20 -17 4 11 -16 -4 -19 -20 -20 -20 -20 -20 -20 -20 -20 -20 -20 -20 -20
-20 -7 7 13 13 16 16 8 25 21 10 7 12 13 21 1 2 25 22 13 9 6 -3 -2 -13 -9 -11 -16 -20 -20 -20 -20 -20 -20 -20 -20 -20 -20 -20 -20 -20 -20 -20 -20
-20 -20 -20 -8 4 5 11 15 12 17 22 4 3 14 12 -10 -1 4 1 -7 -10 -11 2 2 -7 -7 -3 -10 -15 -15 -20 -20 -20 -20 -20 -20 -20 -20 -20 -20 -20 -20 -20 -20
-20 -20 -20 -20 -20 -20 -13 -7 -2 5 7 8 13 7 13 -7 -10 -2 1 -1 -1 4 -10 -20 -19 -18 -15 -20 -20 -20 -20 -20 -20 -20 -20 -20 -20 -20 -20 -20 -20 -20 -20 -20
-20 -20 -20 -20 -20 -20 -20 -6 2 -11 -11 4 6 7 4 -3 -6 -3 -5 -2 -5 -20 -20 -20 -20 -20 -20 -20 -20 -20 -20 -20 -20 -20 -20 -20 -20 -20 -20 -20 -20 -20 -20 -20
-20 -20 -20 -20 -20 -20 -20 -20 -20 -20 -13 -11 -12 -0 -16 -11 -9 -20 -20 -20 -20 -20 -20 -20 -20 -20 -20 -14 -20 -20 -20 -20 -20 -20 -20 -20 -20 -20 -20 -20 -20 -20 -20 -20
-20 -20 -20 -20 -20 -20 -20 -20 -20 -20 -20 -8 -8 2 -9 -12 -20 -20 -20 -20 -20 -20 -20 -20 -20 -20 -20 -20 -20 -20 -20 -20 -20 -20 -20 -20 -20 -20 -20 -20 -20 -20 -20 -20
-20 -20 -20 -20 -20 -20 -20 -20 1 4 -4 3 -3 -4 -2 -20 -20 -17 -20 -20 -20 -17 1 -20 -20 -20 -1 -18 -20 -20 -20 -20 -20 -20 -20 -20 -20 -20 -20 -20 -20 -20 -20 -10
-20 -20 -20 -20 -18 2 7 7 2 -3 5 9 -20 -20 -2 -19 -5 -5 -17 -4 -4 3 1 -20 -20 -3 -6 -20 -20 -20 -20 -20 -20 -20 -20 -20 -20 -20 -20 -20 -20 -20 -20 -20
-20 -20 -15 -3 -20 -13 -4 -19 -1 -17 -6 -20 -14 -16 -9 -11 -15 -20 -1 0 -0 2 -9 8 0 -8 -20 -16 -20 -20 -20 -20 -20 3 -20 -20 -20 -20 -20 -20 -20 -20 -20 -20
-20 -20 -2 -20 -1 -8 -19 -13 3 -20 -20 -15 19 -20 -20 -20 -20 -20 -20 -20 -20 -20 6 11 -8 -20 -20 -14 -20 -20 -20 -20 -20 -20 -20 -20 -20 -20 -20 -17 -17 -20 -20 -20
-20 -20 -20 -20 -20 -19 -3 2 5 -20 18 10 -20 -20 -20 -20 -13 1 -20 -20 -11 6 5 -6 -19 -20 -15 -3 -18 -20 -20 -20 -20 -20 -20 -20 -20 -20 -20 -18 -17 -14 -17 -20
Wind_Speed
28 28 26 25 24 22 17 8 9 11 20 18 10 8 11 10 22 20 12 14 13 19 21 19 19 16 12 19 21 26 17 6 9 15 3 13 22 19 21 10 11 14 12 15
29 28 27 26 25 25 12 8 9 6 20 18 8 10 12 17 19 19 17 13 10 15 15 12 16 17 11 17 23 21 18 9 8 5 7 9 17 22 22 21 7 18 12 8
29 29 28 26 26 26 13 8 6 5 8 19 15 11 17 17 24 23 16 13 10 13 13 17 18 13 6 16 21 10 20 9 14 13 6 11 19 21 23 21 16 17 24 20
30 29 28 27 26 26 13 8 5 5 11 12 23 20 19 23 14 14 18 10 19 15 12 18 10 16 8 7 11 14 16 9 17 15 4 6 13 19 22 26 29 21 26 25
31 30 29 28 27 26 14 6 4 4 9 15 26 20 24 20 18 18 21 17 23 24 17 18 19 13 8 10 5 14 12 8 8 14 16 11 13 16 17 26 28 26 29 28
29 29 29 28 28 25 4 6 3 6 10 14 15 22 18 23 23 20 25 29 24 23 25 8 1 7 10 11 14 17 11 10 6 15 9 6 10 28 23 23 26 24 25 31
28 28 28 27 28 27 3 4 5 2 3 14 15 24 18 22 28 18 25 26 22 23 17 15 12 12 6 10 10 11 11 10 3 3 8 11 13 13 22 28 28 25 26 27
27 27 26 25 24 28 5 0 6 4 4 10 17 21 24 20 11 2 14 19 15 16 11 5 4 2 2 3 4 9 12 12 5 5 8 13 15 11 9 14 23 20 26 24
25 26 26 25 23 24 9 6 3 3 2 5 19 23 29 17 17 5 4 1 13 14 4 4 7 7 7 7 7 2 9 9 10 5 8 13 13 9 6 5 15 13 19 19
24 26 25 24 26 26 9 6 10 4 5 2 6 18 19 7 8 5 4 4 5 3 5 4 5 6 5 11 12 8 6 5 13 10 8 8 4 6 10 11 5 2 11 14
24 23 24 25 27 29 18 4 5 7 2 3 7 3 13 11 10 9 6 6 1 1 5 8 6 4 8 7 6 10 13 10 7 8 9 13 10 13 15 2 3 1 4 10
11 22 21 24 26 28 20 4 3 5 4 4 5 9 12 3 11 9 11 3 8 6 4 3 5 5 6 10 8 6 9 11 9 12 7 4 13 5 5 1 4 4 3 5
18 17 14 19 24 28 11 5 6 5 4 1 6 6 10 11 9 7 8 0 5 5 2 3 3 4 7 8 12 8 11 4 5 6 8 6 13 1 4 2 3 3 3 5
18 19 22 21 19 19 10 6 1 3 5 4 3 6 4 9 6 5 6 13 7 9 4 3 3 4 5 5 1 9 1 12 9 3 5 6 10 6 5 5 4 6 6 4
19 18 20 26 29 26 15 8 5 2 2 5 4 2 14 7 7 13 15 16 14 5 5 2 3 3 4 2 2 6 8 8 7 5 8 2 10 8 7 5 2 5 2 3
22 15 17 23 27 14 1 4 3 6 4 4 5 2 10 12 13 12 12 9 6 4 4 4 3 3 2 5 6 6 8 6 3 7 8 8 7 2 0 2 2 4 3 1
19 20 19 12 8 5 5 5 2 7 2 5 5 4 4 4 6 5 5 4 3 3 4 3 3 4 3 2 3 10 8 7 8 7 5 3 5 3 5 6 6 4 7 7
12 9 13 13 16 14 7 6 7 2 5 4 5 4 3 8 4 4 3 3 2 5 3 3 3 4 2 3 7 8 7 4 3 3 3 3 1 4 7 6 7 9 10 9
11 7 4 3 7 5 3 15 5 2 3 5 3 4 5 1 3 2 3 2 4 1 2 3 2 3 3 6 8 8 5 2 3 2 4 5 7 8 8 8 8 9 9 8
7 5 5 4 4 13 10 2 2 5 4 4 4 0 5 2 2 3 2 2 2 3 3 2 3 3 5 6 4 3 3 4 2 2 4 3 4 5 7 8 7 7 7 5
4 5 4 3 8 3 4 4 5 3 4 4 3 4 6 1 2 4 2 3 1 2 4 2 2 3 6 8 8 6 5 3 1 2 3 4 7 8 7 6 5 5 6 5
4 3 1 2 4 4 5 4 2 5 4 2 5 5 4 4 1 3 2 3 1 4 4 3 3 4 10 9 8 6 4 2 1 1 1 2 3 1 7 5 3 2 3 2
1 1 3 4 4 6 3 3 2 3 3 4 5 4 2 4 3 4 2 3 3 6 3 2 1 8 8 7 7 6 4 3 2 2 2 2 3 3 3 1 1 2 2 2
4 5 6 5 4 4 4 3 3 3 4 7 5 4 3 2 3 2 4 3 4 4 4 3 6 10 8 7 6 6 5 3 1 3 4 3 3 4 3 2 0 3 4 5
4 4 5 5 2 2 2 1 1 2 5 3 5 4 2 2 4 1 4 6 5 5 4 4 7 11 10 9 8 7 4 2 2 2 3 3 3 3 4 4 3 4 5 6
3 4 4 3 2 3 2 5 6 2 1 1 1 3 3 2 4 5 5 6 5 4 4 5 9 10 9 8 7 6 5 3 2 1 2 3 3 3 4 4 4 4 4 6
2 3 2 2 2 3 2 1 3 0 2 1 1 3 2 3 2 3 3 2 3 5 5 5 7 9 8 7 7 6 5 4 2 2 2 2 3 3 3 5 4 4 5 5
Wind_Direction
189 191 191 190 194 193 183 183 221 194 159 188 195 178 169 196 182 200 195 178 148 182 178 192 193 197 217 189 169 192 193 205 195 205 126 244 209 212 205 207 195 237 270 270
189 191 191 193 193 190 181 193 227 210 175 194 167 145 184 189 173 189 189 192 167 162 168 184 201 199 180 175 175 171 177 201 179 203 198 202 223 219 219 226 252 227 216 241
190 190 191 194 194 196 193 196 190 200 222 202 164 159 175 177 181 186 185 182 171 155 173 205 196 191 153 184 188 171 174 178 204 209 220 174 205 218 218 223 227 232 235 249
191 191 191 194 195 197 187 201 216 239 201 202 191 159 179 169 157 176 180 183 182 173 178 198 197 173 142 190 185 178 186 224 222 237 233 226 211 218 215 218 228 225 245 241
190 191 192 193 195 192 198 148 216 162 282 169 204 169 186 178 172 167 195 196 196 190 196 195 192 164 163 170 189 189 202 202 196 229 227 240 243 239 233 223 235 236 247 251
189 192 194 195 192 184 183 170 172 302 215 193 210 195 183 186 171 185 189 198 190 201 208 202 8 174 174 150 170 189 183 197 188 236 195 218 254 234 230 236 236 240 241 248
189 193 197 197 192 187 122 174 157 345 257 211 196 196 180 191 192 175 195 200 198 203 112 107 83 72 95 161 174 181 180 200 158 229 136 217 241 232 231 236 237 238 246 253
188 191 195 194 189 183 176 198 183 162 261 207 193 198 191 173 173 183 180 185 183 135 126 102 104 58 86 222 196 180 182 177 187 197 201 282 272 216 210 215 247 244 249 245
193 192 194 188 181 174 184 214 178 207 242 224 193 188 191 190 174 163 79 56 154 135 110 129 175 177 156 182 169 357 222 265 211 162 232 229 248 271 169 180 255 249 245 244
197 195 193 186 176 171 190 202 199 59 262 359 279 184 191 133 127 114 127 107 133 17 125 148 172 181 192 167 174 162 172 185 213 203 231 259 227 147 152 208 271 81 212 229
215 193 181 180 176 175 186 130 191 177 286 331 344 5 177 120 171 169 151 114 42 84 164 184 166 179 186 210 207 170 176 170 195 223 233 235 153 162 206 292 98 57 225 213
56 192 181 184 181 176 179 125 131 126 69 322 310 67 30 339 168 123 175 106 148 160 124 223 116 177 171 202 218 198 208 208 200 206 220 63 179 246 180 63 179 117 146 158
52 88 151 183 184 163 137 116 142 110 151 59 20 358 344 26 14 160 121 86 131 142 33 110 96 174 194 180 223 186 204 179 211 177 182 172 183 157 168 129 87 81 90 126
75 81 93 111 133 141 128 123 50 106 97 89 49 359 9 344 14 90 118 126 126 119 123 95 140 157 229 212 328 204 151 167 170 210 173 160 183 177 131 102 105 104 90 76
85 83 94 98 99 95 89 80 51 5 67 108 109 67 16 51 66 90 115 127 127 128 113 129 140 118 145 81 164 194 187 165 179 217 165 156 135 150 145 154 125 66 63 95
66 118 111 111 117 106 38 93 5 9 4 107 90 73 46 62 88 81 89 97 94 102 112 101 117 106 190 164 200 141 129 111 104 132 109 100 115 126 63 271 172 137 134 156
57 71 74 113 141 92 69 78 90 314 283 90 107 94 9 30 88 67 88 74 76 68 98 86 131 136 220 170 155 144 142 119 102 103 125 169 206 215 220 227 217 234 263 266
26 54 70 99 108 114 68 27 35 176 85 68 92 98 103 358 62 92 358 86 66 35 92 149 124 143 168 186 132 128 120 123 145 174 207 268 158 222 231 234 244 251 254 256
6 354 10 100 34 37 11 326 317 8 60 99 93 112 109 353 67 66 60 24 70 293 100 92 216 155 184 131 142 142 120 130 138 201 231 222 233 250 245 232 234 242 246 245
353 7 26 52 16 321 297 153 52 36 47 56 76 216 105 162 153 107 143 44 103 128 84 171 205 147 137 138 102 119 101 101 111 196 186 182 238 238 243 230 234 234 235 225
25 32 49 344 312 321 34 48 34 21 74 53 85 91 122 95 120 107 342 110 128 146 105 238 154 185 150 138 119 111 105 88 51 336 314 286 269 257 258 211 214 230 220 206
25 33 343 329 13 42 61 32 20 28 69 101 114 96 74 103 137 101 91 87 181 107 146 199 200 130 143 144 124 108 97 91 102 77 310 291 294 243 218 239 260 252 192 275
210 49 62 6 4 56 52 103 87 105 109 134 153 107 68 133 76 75 93 103 90 134 180 212 117 140 145 133 120 108 92 94 98 79 43 30 63 57 46 143 123 234 182 141
41 27 39 23 41 55 35 50 67 58 142 130 110 82 57 83 79 126 111 96 162 186 193 203 146 160 151 121 122 147 146 144 139 65 43 41 63 72 62 69 130 158 130 119
49 28 52 56 61 39 34 354 127 84 116 138 123 102 104 107 117 187 131 162 193 217 198 132 148 146 148 151 154 141 135 116 65 25 45 58 78 94 88 78 90 90 107 124
47 55 114 122 167 99 83 104 113 134 126 258 123 120 130 136 149 185 196 177 198 159 137 128 137 144 146 142 141 141 139 141 110 41 68 88 89 98 86 76 78 87 117 125
55 74 53 14 58 75 98 39 76 109 212 105 167 150 93 126 204 205 185 212 93 129 128 129 142 145 143 133 134 141 148 144 148 136 114 108 113 116 126 114 100 106 106 106